Weather History for KAPC - March, 2014

Change the Weather History Date:

Wednesday, March 5, 2014

  Actual Average Record
Temperature  
Mean Temperature 58 °F 51 °F  
Max Temperature 63 °F 63 °F 72 °F (2008)
Min Temperature 53 °F 40 °F 32 °F (2013)
Degree Days  
Heating Degree Days 7    
Month to date heating degree days 43  
Since 1 July heating degree days 2250  
Cooling Degree Days 0    
Month to date cooling degree days 0  
Year to date cooling degree days 0  
Growing Degree Days 8 (Base 50)    
Moisture  
Dew Point 55 °F    
Average Humidity 89    
Maximum Humidity 100    
Minimum Humidity 78    
Precipitation  
Precipitation 0.26 in - - ()
Month to date precipitation 0.41  
Year to date precipitation 5.17  
Since 1 July precipitation 7.37  
Sea Level Pressure  
Sea Level Pressure 30.03 in    
Wind  
Wind Speed 6 mph (SW)    
Max Wind Speed 18 mph    
Max Gust Speed 24 mph    
Visibility 8 miles    
Events Rain , Thunderstorm    
T = Trace of Precipitation, MM = Missing Value Source: NWS Daily Summary

Daily Weather History Graph

Daily Weather History Graph

Search for Another Location

Airport or City:

Trip Planner

Search our weather history database for the weather conditions in past years. The results will help you decide how hot, cold, wet, or windy it might be!

Date:

Astronomy

Mar. 05, 2014 Rise Set
Actual Time 6:35 AM PST 6:06 PM PST
Civil Twilight 6:08 AM PST 6:32 PM PST
Nautical Twilight 5:38 AM PST 7:03 PM PST
Astronomical Twilight 5:07 AM PST 7:34 PM PST
Moon 9:08 AM PST (3/5) 11:15 PM PST (3/5)
Length of Visible Light 12h 24m
Length of Day
11h 31m
Waxing Crescent, 24% of the Moon is Illuminated
Mar 5
Waxing Crescent
Mar 8
First Quarter
Mar 16
Full
Mar 23
Last Quarter
Mar 30
New

Hourly Weather History & Observations

Time (PST) Temp. Dew Point Humidity Pressure Visibility Wind Dir Wind Speed Gust Speed Precip Events Conditions
12:54 AM 53.1 °F 52.0 °F 96% 30.07 in 10.0 mi ESE 3.5 mph - N/A   Overcast
1:54 AM 54.0 °F 52.0 °F 93% 30.08 in 10.0 mi Calm Calm - N/A   Overcast
2:54 AM 54.0 °F 53.1 °F 97% 30.07 in 10.0 mi Calm Calm - N/A   Overcast
3:54 AM 54.0 °F 53.1 °F 97% 30.06 in 10.0 mi Calm Calm - N/A   Overcast
4:54 AM 54.0 °F 53.1 °F 97% 30.04 in 10.0 mi Calm Calm - N/A   Overcast
5:54 AM 53.1 °F 53.1 °F 100% 30.05 in 9.0 mi WNW 3.5 mph - N/A   Overcast
6:54 AM 53.1 °F 53.1 °F 100% 30.06 in 5.0 mi ESE 3.5 mph - N/A   Overcast
7:54 AM 55.9 °F 54.0 °F 93% 30.06 in 10.0 mi Calm Calm - N/A   Overcast
8:54 AM 57.9 °F 54.0 °F 87% 30.07 in 10.0 mi Calm Calm - N/A   Overcast
9:54 AM 59.0 °F 55.0 °F 87% 30.07 in 9.0 mi SW 5.8 mph - N/A   Overcast
10:54 AM 60.1 °F 55.9 °F 86% 30.08 in 8.0 mi SW 5.8 mph - N/A   Overcast
11:54 AM 61.0 °F 57.0 °F 87% 30.08 in 5.0 mi SW 3.5 mph - N/A   Overcast
12:54 PM 62.1 °F 55.9 °F 80% 30.05 in 8.0 mi SW 4.6 mph - N/A   Overcast
1:54 PM 62.1 °F 55.9 °F 80% 30.01 in 10.0 mi South 10.4 mph - N/A   Overcast
2:54 PM 61.0 °F 55.9 °F 83% 30.01 in 10.0 mi WSW 12.7 mph - N/A   Overcast
3:54 PM 61.0 °F 55.0 °F 81% 30.01 in 10.0 mi SSW 6.9 mph - N/A   Overcast
4:54 PM 60.1 °F 54.0 °F 80% 30.00 in 10.0 mi SW 12.7 mph - N/A   Overcast
5:28 PM 57.0 °F 55.0 °F 93% 30.02 in 8.0 mi SW 16.1 mph - 0.00 in Rain Light Rain
5:54 PM 57.0 °F 55.0 °F 93% 30.00 in 10.0 mi SSW 11.5 mph - 0.00 in   Overcast
6:54 PM 57.0 °F 55.0 °F 93% 29.98 in 10.0 mi SSW 13.8 mph - N/A   Overcast
7:54 PM 57.9 °F 55.0 °F 90% 29.96 in 10.0 mi WSW 8.1 mph - N/A   Overcast
8:54 PM 59.0 °F 55.9 °F 90% 29.96 in 10.0 mi SW 3.5 mph - 0.00 in   Overcast
9:27 PM 59.0 °F 57.9 °F 96% 29.99 in 5.0 mi SW 15.0 mph - 0.01 in Rain Rain
9:54 PM 57.9 °F 57.9 °F 100% 29.98 in 2.5 mi SW 16.1 mph - 0.10 in Rain Heavy Rain
10:07 PM 57.9 °F 57.9 °F 100% 30.01 in 2.0 mi SW 16.1 mph - 0.09 in Rain Heavy Rain
10:15 PM 57.9 °F 57.9 °F 100% 30.01 in 2.5 mi SSW 16.1 mph - 0.15 in Rain , Thunderstorm Heavy Thunderstorms and Rain
10:19 PM 57.9 °F 57.9 °F 100% 30.01 in 3.0 mi SSW 13.8 mph - 0.16 in Rain , Thunderstorm Thunderstorms and Rain
10:28 PM 57.9 °F 57.9 °F 100% 30.02 in 8.0 mi SSW 15.0 mph - 0.16 in Rain Light Rain
10:40 PM 57.9 °F 57.9 °F 100% 30.02 in 8.0 mi SSW 17.3 mph - 0.16 in Rain Light Rain
10:54 PM 57.9 °F 57.9 °F 100% 30.00 in 7.0 mi SSW 16.1 mph - 0.16 in Rain Light Rain
11:54 PM 57.0 °F 57.0 °F 100% 30.00 in 10.0 mi SW 12.7 mph - 0.00 in   Overcast